Orbital Elements at Epoch 2459000.5 (2020-May-31.0) TDB
Reference: JPL 25 (heliocentric ecliptic J2000)
Element | Value | Uncertainty (1-sigma) | Units |
e | .2436315038027835 | 4.2179e-08 | |
a | 2.752825674722683 | 1.5146e-08 | au |
q | 2.082150615883084 | 1.159e-07 | au |
i | 13.23788895278939 | 4.6885e-06 | deg |
node | 172.7535277473053 | 1.5349e-05 | deg |
peri | 175.9903977483289 | 1.6907e-05 | deg |
M | 135.2243074493193 | 6.5808e-06 | deg |
tp | 2458373.859071229386 (2018-Sep-12.35907123) | 3.0597e-05 | TDB |
period | 1668.270583984836 4.57 | 1.3768e-05 3.769e-08 | d yr |
n | .2157923321647877 | 1.7809e-09 | deg/d |
Q | 3.423500733562282 | 1.8835e-08 | au |
|
| | Orbit Determination Parameters
Additional Information
|